period_start,C,m1,H,J0,J1,J2,J3,J4,J5,JA,JB,JC,JD,JJ,JK,JN,#
2017-05-13 00:04:46,0.13,0.64,0.00,24.36,26.85,30.16,14.37,48.62,1016.12,2032.05,3245.58,2911.31,3341.44,600.12,593.13,4.22,0000 0000 0000 0000 000000
2017-05-13 00:09:47,0.10,0.65,0.00,24.34,26.85,30.17,14.40,48.53,1015.95,2032.03,3243.32,2909.64,3339.65,600.15,593.16,4.27,0000 0000 0000 0000 000000
2017-05-13 00:14:48,0.13,0.66,0.00,24.37,26.85,30.16,14.35,48.54,1015.70,2032.03,3240.68,2907.77,3337.57,599.95,592.76,4.32,0000 0000 0000 0000 000000
2017-05-13 00:19:49,0.11,0.66,0.00,24.37,26.85,30.16,14.35,48.33,1015.66,2032.02,3238.17,2905.93,3335.48,600.08,592.88,4.37,0000 0000 0000 0000 000000
2017-05-13 00:24:50,0.13,0.67,0.00,24.35,26.86,30.16,14.33,48.40,1015.64,2032.00,3235.59,2904.09,3333.47,600.43,593.20,4.42,0000 0000 0000 0000 000000
2017-05-13 00:29:52,0.16,0.68,0.00,24.39,26.87,30.17,14.39,48.58,1015.64,2032.00,3232.34,2901.77,3330.89,600.17,592.80,4.47,0000 0000 0000 0000 000000
2017-05-13 00:34:53,0.11,0.68,0.00,24.36,26.87,30.17,14.34,48.57,1015.58,2032.01,3229.66,2899.92,3328.86,599.90,592.49,4.52,0000 0000 0000 0000 000000
2017-05-13 00:39:54,0.15,0.69,0.00,24.30,26.87,30.17,14.44,48.62,1015.37,2032.00,3226.70,2897.83,3326.54,600.18,592.99,4.57,0000 0000 0000 0000 000000
2017-05-13 00:44:56,0.15,0.70,0.00,24.37,26.87,30.17,14.31,48.44,1015.27,2032.00,3223.52,2895.53,3324.05,599.97,592.48,4.62,0000 0000 0000 0000 000000
2017-05-13 00:49:57,0.16,0.71,0.00,24.36,26.89,30.17,14.36,48.32,1015.20,2032.00,3220.26,2893.20,3321.45,600.24,592.80,4.67,0000 0000 0000 0000 000000
2017-05-13 00:54:58,0.20,0.72,0.00,24.31,26.90,30.17,14.37,48.44,1015.19,2032.00,3216.26,2890.32,3318.29,599.90,592.58,4.72,0000 0000 0000 0000 000000
2017-05-13 01:00:00,0.10,0.72,0.00,24.31,26.90,30.18,14.31,48.56,1015.16,2032.00,3213.59,2888.38,3316.18,599.68,592.26,4.78,0000 0000 0000 0000 000000
2017-05-13 01:05:01,0.08,0.73,0.00,24.32,26.90,30.18,14.39,48.52,1015.15,2032.00,3211.85,2887.23,3314.86,600.20,592.68,4.83,0000 0000 0000 0000 000000
2017-05-13 01:10:03,0.08,0.73,0.00,24.39,26.90,30.18,14.35,48.54,1015.15,2032.00,3210.20,2886.06,3313.59,599.68,592.09,4.88,0000 0000 0000 0000 000000
2017-05-13 01:15:04,0.09,0.74,0.00,24.37,26.91,30.18,14.37,48.69,1015.12,2032.00,3208.26,2884.76,3312.19,600.20,592.62,4.93,0000 0000 0000 0000 000000
2017-05-13 01:20:05,0.16,0.74,0.00,24.32,26.92,30.19,14.32,48.67,1014.89,2032.00,3204.85,2882.65,3309.73,599.97,592.34,4.98,0000 0000 0000 0000 000000
2017-05-13 01:25:07,0.13,0.75,0.00,24.38,26.92,30.19,14.38,48.55,1014.71,2032.00,3202.06,2880.79,3307.65,600.01,592.16,5.03,0000 0000 0000 0000 000000
2017-05-13 01:30:08,0.04,0.76,0.00,24.33,26.93,30.19,14.39,48.63,1014.67,2032.00,3200.49,2879.98,3306.51,600.07,592.37,5.08,0000 0000 0000 0000 000000
2017-05-13 01:35:10,0.04,0.76,0.00,24.37,26.95,30.20,14.42,48.69,1014.66,2032.00,3199.62,2879.24,3305.97,599.76,591.90,5.13,0000 0000 0000 0000 000000
2017-05-13 01:40:11,0.02,0.76,0.00,24.40,26.95,30.19,14.26,48.52,1014.66,2032.00,3198.89,2878.99,3305.15,599.47,591.66,5.18,0000 0000 0000 0000 000000
2017-05-13 01:45:12,0.05,0.76,0.00,24.35,26.95,30.20,14.35,48.83,1014.58,2032.00,3198.03,2878.22,3304.51,599.67,591.79,5.23,0000 0000 0000 0000 000000
2017-05-13 01:50:14,0.02,0.76,0.00,24.34,26.97,30.20,14.46,48.53,1014.46,2032.00,3197.19,2877.98,3304.01,600.18,592.31,5.28,0000 0000 0000 0000 000000
2017-05-13 01:55:15,0.06,0.77,0.00,24.36,26.97,30.20,14.41,48.67,1014.46,2032.00,3196.37,2877.25,3303.32,599.99,592.05,5.33,0000 0000 0000 0000 000000
2017-05-13 02:00:16,0.02,0.77,0.00,24.28,26.97,30.21,14.34,48.73,1014.36,2032.00,3195.59,2876.92,3302.82,600.02,592.17,5.38,0000 0000 0000 0000 000000
2017-05-13 02:05:17,0.04,0.77,0.00,24.34,26.98,30.20,14.45,48.73,1014.21,2031.98,3194.70,2876.13,3302.05,600.18,592.08,5.43,0000 0000 0000 0000 000000
2017-05-13 02:10:19,0.05,0.77,0.00,24.37,27.00,30.21,14.36,48.64,1014.18,2031.99,3193.72,2875.65,3301.31,600.27,591.99,5.48,0000 0000 0000 0000 000000
2017-05-13 02:15:20,0.08,0.78,0.00,24.30,27.00,30.21,14.44,48.67,1014.18,2031.99,3192.10,2874.51,3300.12,600.43,592.35,5.53,0000 0000 0000 0000 000000
2017-05-13 02:20:22,0.08,0.78,0.00,24.39,27.00,30.22,14.32,48.64,1014.17,2031.98,3190.37,2873.37,3298.71,599.63,591.45,5.58,0000 0000 0000 0000 000000
2017-05-13 02:25:23,0.07,0.78,0.00,24.29,27.00,30.22,14.42,48.65,1014.16,2031.98,3188.77,2872.37,3297.57,600.11,592.13,5.63,0000 0000 0000 0000 000000
2017-05-13 02:30:25,0.06,0.79,0.00,24.28,27.00,30.22,14.41,48.71,1014.10,2031.98,3187.31,2871.30,3296.39,600.23,592.21,5.68,0000 0000 0000 0000 000000
2017-05-13 02:35:26,0.06,0.79,0.00,24.36,27.01,30.22,14.40,48.68,1013.87,2031.99,3186.05,2870.54,3295.60,600.17,591.88,5.73,0000 0000 0000 0000 000000
2017-05-13 02:40:27,0.07,0.79,0.00,24.26,27.02,30.22,14.44,48.61,1013.78,2031.95,3184.64,2869.55,3294.41,600.20,592.10,5.78,0000 0000 0000 0000 000000
2017-05-13 02:45:28,0.12,0.80,0.00,24.26,27.02,30.23,14.33,48.68,1013.70,2031.96,3182.41,2868.03,3292.62,599.89,591.76,5.83,0000 0000 0000 0000 000000
2017-05-13 02:50:30,0.18,0.81,0.00,24.25,27.01,30.21,14.36,48.65,1013.69,2031.95,3178.95,2865.56,3290.03,599.66,591.52,5.88,0000 0000 0000 0000 000000
2017-05-13 02:55:31,0.18,0.82,0.00,24.35,27.01,30.21,14.36,48.65,1013.69,2031.96,3175.21,2863.11,3287.23,600.03,591.65,5.93,0000 0000 0000 0000 000000
2017-05-13 03:00:32,0.27,0.83,0.00,24.26,27.01,30.21,14.26,48.64,1013.69,2031.97,3169.97,2859.76,3283.48,599.69,591.52,5.98,0000 0000 0000 0000 000000
2017-05-13 03:05:33,0.31,0.84,0.00,24.28,27.01,30.20,14.33,48.69,1013.69,2031.95,3163.14,2855.49,3278.73,599.88,591.58,6.03,0000 0000 0000 0000 000000
2017-05-13 03:10:35,0.21,0.86,0.00,24.22,27.01,30.21,14.33,48.68,1013.69,2031.98,3158.08,2852.32,3275.13,600.03,591.95,6.08,0000 0000 0000 0000 000000
2017-05-13 03:15:36,0.09,0.86,0.00,24.24,27.01,30.21,14.38,48.75,1013.65,2031.98,3155.63,2850.73,3273.21,600.05,592.00,6.13,0000 0000 0000 0000 000000
2017-05-13 03:20:37,0.06,0.87,0.00,24.34,27.01,30.20,14.41,48.77,1013.52,2031.97,3154.26,2849.67,3272.13,600.07,591.50,6.18,0000 0000 0000 0000 000000
2017-05-13 03:25:38,0.06,0.87,0.00,24.30,27.02,30.20,14.32,48.78,1013.50,2031.97,3153.11,2848.76,3271.04,600.12,591.71,6.23,0000 0000 0000 0000 000000
2017-05-13 03:30:39,0.05,0.87,0.00,24.23,27.01,30.20,14.35,48.78,1013.43,2031.94,3152.03,2847.95,3270.00,599.95,591.68,6.28,0000 0000 0000 0000 000000
2017-05-13 03:35:40,0.07,0.88,0.00,24.23,27.00,30.19,14.45,48.77,1013.21,2031.96,3150.85,2847.06,3269.07,600.26,591.77,6.33,0000 0000 0000 0000 000000
2017-05-13 03:40:41,0.06,0.88,0.00,24.24,27.00,30.19,14.31,48.68,1013.21,2031.96,3149.68,2846.16,3268.10,599.64,591.23,6.38,0000 0000 0000 0000 000000
2017-05-13 03:45:42,0.05,0.88,0.00,24.34,27.00,30.19,14.29,48.79,1013.20,2031.94,3148.66,2845.52,3267.25,599.85,591.15,6.43,0000 0000 0000 0000 000000
2017-05-13 03:50:44,0.02,0.88,0.00,24.23,27.00,30.18,14.35,48.73,1013.20,2031.96,3147.94,2845.01,3266.83,600.09,591.48,6.48,0000 0000 0000 0000 000000
2017-05-13 03:55:45,0.04,0.89,0.00,24.20,27.00,30.17,14.30,48.77,1013.20,2031.97,3147.14,2844.66,3266.06,599.73,591.36,6.53,0000 0000 0000 0000 000000
2017-05-13 04:00:46,0.02,0.89,0.00,24.18,27.00,30.18,14.41,48.64,1013.18,2031.95,3146.59,2844.03,3265.80,599.91,591.61,6.58,0000 0000 0000 0000 000000
2017-05-13 04:05:47,0.03,0.89,0.00,24.28,27.00,30.18,14.36,48.74,1013.06,2031.93,3145.86,2843.72,3265.04,600.06,591.47,6.63,0000 0000 0000 0000 000000
2017-05-13 04:10:49,0.03,0.89,0.00,24.32,27.00,30.17,14.38,48.56,1012.88,2031.97,3145.05,2843.04,3264.68,599.99,591.27,6.68,0000 0000 0000 0000 000000
2017-05-13 04:15:50,0.03,0.89,0.00,24.12,27.00,30.17,14.38,48.68,1012.75,2031.97,3144.27,2842.77,3264.02,600.05,591.64,6.73,0000 0000 0000 0000 000000
2017-05-13 04:20:52,0.04,0.90,0.00,24.19,27.00,30.17,14.40,48.61,1012.73,2031.98,3143.52,2842.06,3263.56,599.98,591.33,6.78,0000 0000 0000 0000 000000
2017-05-13 04:25:53,0.04,0.90,0.00,24.23,27.00,30.16,14.34,48.60,1012.71,2031.99,3142.57,2841.69,3262.88,600.00,591.29,6.83,0000 0000 0000 0000 000000
2017-05-13 04:30:55,0.19,0.90,0.00,24.21,27.00,30.17,14.39,48.59,1012.71,2031.98,3139.03,2839.53,3260.70,600.07,591.38,6.88,0000 0000 0000 0000 000000
2017-05-13 04:35:56,0.17,0.91,0.00,24.19,27.00,30.17,14.25,48.59,1012.71,2031.99,3135.00,2837.12,3257.95,599.65,591.04,6.93,0000 0000 0000 0000 000000
2017-05-13 04:40:57,0.14,0.92,0.00,24.20,27.00,30.16,14.43,48.77,1012.70,2031.99,3131.92,2835.15,3255.74,599.92,591.32,6.98,0000 0000 0000 0000 000000
2017-05-13 04:45:58,0.10,0.93,0.00,24.24,27.00,30.17,14.37,48.71,1012.49,2031.99,3129.34,2833.53,3253.86,599.94,591.17,7.03,0000 0000 0000 0000 000000
2017-05-13 04:51:00,0.08,0.93,0.00,24.22,27.00,30.17,14.30,48.68,1012.28,2031.99,3127.61,2832.47,3252.63,599.80,590.93,7.09,0000 0000 0000 0000 000000
2017-05-13 04:56:01,0.08,0.94,0.00,24.15,27.00,30.17,14.39,48.67,1012.24,2031.99,3125.68,2831.29,3251.32,600.00,591.15,7.14,0000 0000 0000 0000 000000
2017-05-13 05:01:02,0.06,0.94,0.00,24.23,27.00,30.16,14.40,48.76,1012.22,2031.99,3124.34,2830.35,3250.31,599.92,590.87,7.19,0000 0000 0000 0000 000000
2017-05-13 05:06:04,0.08,0.94,0.00,24.10,27.00,30.15,14.39,48.69,1012.22,2031.98,3122.75,2829.22,3248.99,600.34,591.60,7.24,0000 0000 0000 0000 000000
2017-05-13 05:11:05,0.15,0.95,0.00,24.18,27.00,30.15,14.35,48.67,1012.22,2031.98,3120.00,2827.36,3246.82,599.74,590.95,7.29,0000 0000 0000 0000 000000
2017-05-13 05:16:06,0.05,0.96,0.00,24.21,27.00,30.16,14.35,48.65,1012.22,2031.99,3118.66,2826.26,3245.86,599.98,591.09,7.34,0000 0000 0000 0000 000000
2017-05-13 05:21:07,0.05,0.96,0.00,24.12,27.00,30.15,14.39,48.71,1012.22,2031.97,3117.60,2825.69,3245.03,600.30,591.57,7.39,0000 0000 0000 0000 000000
2017-05-13 05:26:08,0.04,0.96,0.00,24.17,27.00,30.15,14.29,48.71,1012.21,2031.98,3116.59,2825.02,3244.18,600.06,591.21,7.44,0000 0000 0000 0000 000000
2017-05-13 05:31:10,0.05,0.96,0.00,24.12,27.00,30.15,14.33,48.67,1012.19,2031.98,3115.53,2824.34,3243.47,600.02,591.19,7.49,0000 0000 0000 0000 000000
2017-05-13 05:36:11,0.05,0.97,0.00,24.08,27.00,30.14,14.36,48.70,1012.16,2031.98,3114.32,2823.62,3242.62,600.32,591.59,7.54,0000 0000 0000 0000 000000
2017-05-13 05:41:12,0.03,0.97,0.00,24.16,27.00,30.14,14.33,48.59,1012.12,2031.99,3113.13,2822.92,3241.86,599.90,591.11,7.59,0000 0000 0000 0000 000000
2017-05-13 05:46:13,0.05,0.97,0.00,24.16,27.00,30.15,14.35,48.71,1012.06,2031.99,3112.10,2822.10,3241.06,599.93,590.95,7.64,0000 0000 0000 0000 000000
2017-05-13 05:51:14,0.07,0.97,0.00,24.09,27.00,30.15,14.25,48.70,1011.99,2031.99,3110.80,2821.35,3240.22,599.86,590.98,7.69,0000 0000 0000 0000 000000
2017-05-13 05:56:15,0.07,0.98,0.00,24.18,27.01,30.14,14.30,48.57,1011.87,2031.99,3109.23,2820.44,3239.20,599.81,590.67,7.74,0000 0000 0000 0000 000000
2017-05-13 06:01:16,0.07,0.98,0.00,24.11,27.02,30.14,14.43,48.66,1011.79,2031.99,3107.77,2819.55,3238.13,600.49,591.46,7.79,0000 0000 0000 0000 000000
2017-05-13 06:06:18,0.08,0.98,0.00,24.09,27.02,30.14,14.31,48.67,1011.76,2031.99,3106.27,2818.52,3236.88,599.65,590.69,7.84,0000 0000 0000 0000 000000
2017-05-13 06:11:19,0.09,0.99,0.00,24.15,27.02,30.15,14.34,48.57,1011.75,2031.99,3104.23,2817.04,3235.32,599.73,590.58,7.89,0000 0000 0000 0000 000000
2017-05-13 06:16:20,0.07,0.99,0.00,24.12,27.02,30.14,14.34,48.67,1011.73,2031.99,3102.62,2816.01,3234.02,600.19,591.22,7.94,0000 0000 0000 0000 000000
2017-05-13 06:21:22,0.13,1.00,0.00,24.14,27.04,30.15,14.34,48.67,1011.74,2031.97,3100.28,2814.35,3232.15,599.97,590.88,7.99,0000 0000 0000 0000 000000
2017-05-13 06:26:23,0.13,1.01,0.00,24.09,27.05,30.15,14.39,48.70,1011.73,2031.98,3097.78,2812.67,3230.14,599.96,591.05,8.04,0000 0000 0000 0000 000000
2017-05-13 06:31:24,0.08,1.01,0.00,24.14,27.05,30.14,14.38,48.67,1011.73,2031.97,3095.90,2811.54,3228.73,599.90,590.76,8.09,0000 0000 0000 0000 000000
2017-05-13 06:36:26,0.07,1.02,0.00,24.17,27.05,30.16,14.31,48.70,1011.73,2031.97,3094.38,2810.44,3227.61,600.03,590.86,8.14,0000 0000 0000 0000 000000
2017-05-13 06:41:27,0.06,1.02,0.00,24.13,27.05,30.16,14.38,48.72,1011.73,2031.93,3092.94,2809.44,3226.46,600.04,591.01,8.19,0000 0000 0000 0000 000000
2017-05-13 06:46:28,0.05,1.02,0.00,24.14,27.05,30.17,14.39,48.73,1011.75,2031.85,3091.65,2808.61,3225.46,600.17,590.88,8.24,0000 0000 0000 0000 000000
2017-05-13 06:51:29,0.06,1.03,0.00,24.16,27.05,30.17,14.32,48.61,1011.73,2031.90,3090.37,2807.81,3224.54,600.11,590.92,8.29,0000 0000 0000 0000 000000
2017-05-13 06:56:31,0.05,1.03,0.00,24.14,27.05,30.17,14.40,48.77,1011.74,2031.61,3088.71,2806.68,3223.38,600.16,591.05,8.34,0000 0000 0000 0000 000000
2017-05-13 07:01:32,0.05,1.03,0.00,24.14,27.05,30.17,14.41,48.75,1011.74,2031.38,3087.40,2805.92,3222.22,600.15,591.05,8.39,0000 0000 0000 0000 000000
2017-05-13 07:06:33,0.04,1.03,0.00,24.15,27.05,30.18,14.31,48.71,1011.76,2031.36,3086.20,2805.06,3221.46,599.78,590.86,8.44,0000 0000 0000 0000 000000
2017-05-13 07:11:34,0.08,1.04,0.00,24.13,27.05,30.17,14.39,48.76,1011.75,2031.37,3084.57,2804.06,3220.26,600.19,591.11,8.49,0000 0000 0000 0000 000000
2017-05-13 07:16:35,0.10,1.04,0.00,24.16,27.05,30.18,14.35,48.71,1011.75,2031.37,3082.49,2802.84,3218.85,600.21,591.05,8.54,0000 0000 0000 0000 000000
2017-05-13 07:21:37,0.12,1.05,0.00,24.14,27.05,30.18,14.37,48.70,1011.73,2031.28,3079.83,2801.19,3216.99,600.18,591.08,8.59,0000 0000 0000 0000 000000
2017-05-13 07:26:38,0.15,1.05,0.00,24.15,27.05,30.17,14.36,48.65,1011.75,2031.13,3076.63,2799.15,3214.71,600.02,590.90,8.64,0000 0000 0000 0000 000000
2017-05-13 07:31:39,0.14,1.06,0.00,24.21,27.04,30.18,14.38,48.67,1011.75,2031.15,3073.40,2797.15,3212.48,600.25,591.05,8.69,0000 0000 0000 0000 000000
2017-05-13 07:36:41,0.12,1.07,0.00,24.19,27.04,30.19,14.38,48.80,1011.78,2031.11,3070.92,2795.51,3210.64,600.05,590.88,8.74,0000 0000 0000 0000 000000
2017-05-13 07:41:42,0.06,1.07,0.00,24.21,27.04,30.19,14.30,48.67,1011.92,2031.05,3069.29,2794.50,3209.48,599.95,590.80,8.79,0000 0000 0000 0000 000000
2017-05-13 07:46:43,0.10,1.08,0.00,24.23,27.04,30.20,14.32,48.69,1012.14,2031.14,3067.16,2793.29,3208.04,599.89,590.88,8.84,0000 0000 0000 0000 000000
2017-05-13 07:51:44,0.09,1.08,0.00,24.23,27.04,30.20,14.25,48.69,1012.20,2031.20,3065.33,2792.14,3206.77,599.83,590.96,8.89,0000 0000 0000 0000 000000
2017-05-13 07:56:46,0.09,1.09,0.00,24.23,27.05,30.21,14.44,48.73,1012.21,2031.16,3063.11,2790.78,3205.43,600.37,591.38,8.94,0000 0000 0000 0000 000000
2017-05-13 08:01:47,0.07,1.09,0.00,24.26,27.05,30.20,14.40,48.63,1012.22,2031.28,3061.50,2789.92,3204.18,600.01,590.87,8.99,0000 0000 0000 0000 000000
2017-05-13 08:06:48,0.06,1.10,0.00,24.26,27.05,30.21,14.39,48.72,1012.22,2031.24,3060.49,2789.09,3203.35,600.07,590.87,9.04,0000 0000 0000 0000 000000
2017-05-13 08:11:50,0.04,1.10,0.00,24.28,27.05,30.21,14.30,48.62,1012.22,2031.32,3059.64,2788.74,3202.85,599.84,590.76,9.09,0000 0000 0000 0000 000000
2017-05-13 08:16:51,0.04,1.10,0.00,24.25,27.05,30.21,14.32,48.59,1012.22,2031.32,3058.58,2787.99,3201.97,600.27,591.25,9.14,0000 0000 0000 0000 000000
2017-05-13 08:21:53,0.07,1.10,0.00,24.26,27.05,30.22,14.36,48.52,1012.22,2031.30,3057.26,2787.11,3201.07,600.14,591.04,9.19,0000 0000 0000 0000 000000
2017-05-13 08:26:54,0.05,1.11,0.00,24.25,27.05,30.22,14.42,48.64,1012.23,2031.18,3055.96,2786.30,3200.10,599.71,590.69,9.24,0000 0000 0000 0000 000000
2017-05-13 08:31:55,0.06,1.11,0.00,24.26,27.05,30.22,14.34,48.64,1012.26,2031.09,3054.66,2785.54,3199.10,599.81,590.85,9.29,0000 0000 0000 0000 000000
2017-05-13 08:36:56,0.06,1.11,0.00,24.26,27.05,30.23,14.36,48.61,1012.30,2031.11,3053.33,2784.64,3198.30,599.89,590.93,9.34,0000 0000 0000 0000 000000
2017-05-13 08:41:57,0.03,1.12,0.00,24.24,27.05,30.23,14.33,48.62,1012.30,2031.03,3052.12,2783.99,3197.33,599.84,590.84,9.40,0000 0000 0000 0000 000000
2017-05-13 08:46:59,0.06,1.12,0.00,24.22,27.05,30.24,14.33,48.55,1012.36,2031.01,3051.02,2783.21,3196.53,599.97,591.17,9.45,0000 0000 0000 0000 000000
2017-05-13 08:52:00,0.06,1.12,0.00,24.23,27.05,30.24,14.37,48.61,1012.43,2031.01,3049.85,2782.30,3195.70,600.00,591.15,9.50,0000 0000 0000 0000 000000
2017-05-13 08:57:01,0.02,1.12,0.00,24.24,27.05,30.25,14.38,48.60,1012.64,2031.01,3048.97,2781.97,3195.03,600.10,591.33,9.55,0000 0000 0000 0000 000000
2017-05-13 09:02:02,0.06,1.13,0.00,24.23,27.05,30.24,14.32,48.66,1012.69,2031.00,3048.00,2781.19,3194.29,599.98,591.27,9.60,0000 0000 0000 0000 000000
2017-05-13 09:07:03,0.08,1.13,0.00,24.24,27.05,30.26,14.35,48.63,1012.70,2031.00,3046.37,2780.27,3193.18,600.16,591.37,9.65,0000 0000 0000 0000 000000
2017-05-13 09:12:05,0.07,1.13,0.00,24.22,27.05,30.26,14.43,48.65,1012.71,2031.00,3044.64,2779.14,3192.00,599.99,591.30,9.70,0000 0000 0000 0000 000000
2017-05-13 09:17:06,0.06,1.14,0.00,24.23,27.05,30.25,14.32,48.61,1012.71,2031.01,3043.55,2778.52,3191.10,600.01,591.31,9.75,0000 0000 0000 0000 000000
2017-05-13 09:22:07,0.02,1.14,0.00,24.23,27.05,30.26,14.34,48.66,1012.72,2031.00,3042.80,2778.00,3190.61,599.88,591.16,9.80,0000 0000 0000 0000 000000
2017-05-13 09:27:08,0.06,1.14,0.00,24.21,27.05,30.25,14.38,48.60,1012.72,2031.00,3041.73,2777.43,3189.86,599.95,591.48,9.85,0000 0000 0000 0000 000000
2017-05-13 09:32:09,0.06,1.14,0.00,24.22,27.05,30.26,14.38,48.62,1012.73,2031.00,3040.39,2776.57,3188.96,599.62,590.96,9.90,0000 0000 0000 0000 000000
2017-05-13 09:37:11,0.04,1.15,0.00,24.24,27.05,30.26,14.41,48.67,1012.72,2031.01,3039.21,2775.97,3188.08,600.12,591.43,9.95,0000 0000 0000 0000 000000
2017-05-13 09:42:13,0.06,1.15,0.00,24.21,27.05,30.25,14.34,48.68,1012.73,2031.01,3038.10,2775.20,3187.35,599.95,591.23,10.00,0000 0000 0000 0000 000000
2017-05-13 09:47:14,0.05,1.15,0.00,24.19,27.04,30.25,14.41,48.64,1012.76,2031.01,3037.10,2774.66,3186.65,600.14,591.53,10.05,0000 0000 0000 0000 000000
2017-05-13 09:52:16,0.03,1.16,0.00,24.18,27.03,30.25,14.31,48.71,1012.91,2031.01,3036.07,2774.00,3185.92,599.97,591.45,10.10,0000 0000 0000 0000 000000
2017-05-13 09:57:17,0.06,1.16,0.00,24.21,27.02,30.25,14.50,48.70,1012.97,2031.01,3034.95,2773.23,3185.08,600.22,591.70,10.15,0000 0000 0000 0000 000000
2017-05-13 10:02:18,0.03,1.16,0.00,24.17,27.02,30.25,14.37,48.64,1012.95,2031.04,3034.03,2772.93,3184.44,600.30,591.77,10.20,0000 0000 0000 0000 000000
2017-05-13 10:07:19,0.05,1.16,0.00,24.15,27.02,30.24,14.34,48.63,1013.12,2031.03,3033.16,2772.10,3183.89,599.77,591.46,10.25,0000 0000 0000 0000 000000
2017-05-13 10:12:21,0.05,1.16,0.00,24.16,27.02,30.24,14.44,48.74,1013.12,2031.01,3032.04,2771.45,3182.96,600.23,591.90,10.30,0000 0000 0000 0000 000000
2017-05-13 10:17:22,0.06,1.17,0.00,24.14,27.02,30.23,14.32,48.77,1013.08,2031.02,3030.82,2770.69,3182.05,599.78,591.48,10.35,0000 0000 0000 0000 000000
2017-05-13 10:22:24,0.03,1.17,0.00,24.14,27.02,30.23,14.31,48.58,1013.04,2031.04,3030.03,2770.03,3181.54,599.88,591.45,10.40,0000 0000 0000 0000 000000
2017-05-13 10:27:25,0.02,1.17,0.00,24.11,27.01,30.23,14.44,48.77,1013.15,2031.02,3029.34,2769.90,3181.00,599.89,591.67,10.45,0000 0000 0000 0000 000000
2017-05-13 10:32:26,0.04,1.17,0.00,24.11,27.00,30.22,14.34,48.65,1013.20,2031.07,3028.77,2769.20,3180.53,599.84,591.64,10.50,0000 0000 0000 0000 000000
2017-05-13 10:37:27,0.01,1.18,0.00,24.14,27.00,30.23,14.42,48.76,1013.19,2031.05,3028.02,2768.99,3180.01,599.95,591.76,10.55,0000 0000 0000 0000 000000
2017-05-13 10:42:28,0.06,1.18,0.00,24.10,27.00,30.21,14.41,48.73,1013.17,2031.04,3027.24,2768.35,3179.38,600.01,592.00,10.60,0000 0000 0000 0000 000000
2017-05-13 10:47:30,0.02,1.18,0.00,24.10,27.00,30.21,14.33,48.58,1013.19,2031.04,3026.71,2768.00,3178.99,599.90,591.76,10.65,0000 0000 0000 0000 000000
2017-05-13 10:52:31,0.04,1.18,0.00,24.10,26.98,30.20,14.40,48.63,1013.20,2031.06,3025.92,2767.69,3178.40,600.09,591.92,10.70,0000 0000 0000 0000 000000
2017-05-13 10:57:32,0.09,1.18,0.00,24.13,26.97,30.20,14.35,48.58,1013.20,2031.08,3024.30,2766.60,3177.40,600.17,591.92,10.75,0000 0000 0000 0000 000000
2017-05-13 11:02:33,0.04,1.19,0.00,24.10,26.97,30.21,14.43,48.62,1013.20,2031.15,3022.89,2765.96,3176.29,600.41,592.07,10.80,0000 0000 0000 0000 000000
2017-05-13 11:07:34,0.04,1.19,0.00,24.09,26.97,30.20,14.41,48.60,1013.20,2031.15,3022.06,2765.19,3175.98,599.99,591.85,10.85,0000 0000 0000 0000 000000
2017-05-13 11:12:36,0.03,1.19,0.00,24.07,26.97,30.19,14.30,48.67,1013.21,2031.18,3021.59,2765.00,3175.46,599.79,591.76,10.90,0000 0000 0000 0000 000000
2017-05-13 11:17:37,0.02,1.19,0.00,24.10,26.95,30.18,14.41,48.60,1013.21,2031.19,3020.99,2764.69,3175.00,599.93,591.76,10.95,0000 0000 0000 0000 000000
2017-05-13 11:22:39,0.05,1.20,0.00,24.12,26.95,30.17,14.40,48.52,1013.21,2031.28,3020.21,2764.04,3174.58,600.12,591.92,11.00,0000 0000 0000 0000 000000
2017-05-13 11:27:40,0.06,1.20,0.00,24.10,26.95,30.17,14.37,48.63,1013.20,2031.52,3019.56,2763.78,3173.86,599.95,591.78,11.05,0000 0000 0000 0000 000000
2017-05-13 11:32:41,0.06,1.20,0.00,24.16,26.95,30.16,14.31,48.56,1013.22,2031.60,3017.65,2762.91,3172.99,599.95,591.69,11.10,0000 0000 0000 0000 000000
2017-05-13 11:37:43,0.05,1.20,0.00,24.12,26.95,30.17,14.38,48.64,1013.22,2031.54,3017.01,2762.13,3172.19,599.95,591.76,11.15,0000 0000 0000 0000 000000
2017-05-13 11:42:44,0.02,1.21,0.00,24.12,26.95,30.16,14.37,48.67,1013.26,2031.67,3016.46,2762.00,3172.00,599.97,591.85,11.20,0000 0000 0000 0000 000000
2017-05-13 11:47:45,0.01,1.21,0.00,24.14,26.95,30.15,14.34,48.73,1013.23,2031.48,3015.99,2761.75,3171.46,599.96,591.72,11.25,0000 0000 0000 0000 000000
2017-05-13 11:52:46,0.05,1.21,0.00,24.13,26.94,30.15,14.38,48.71,1013.26,2031.57,3015.31,2761.10,3171.01,599.80,591.64,11.30,0000 0000 0000 0000 000000
2017-05-13 11:57:47,0.02,1.21,0.00,24.11,26.93,30.15,14.37,48.67,1013.43,2031.75,3014.97,2761.00,3170.87,600.11,592.06,11.35,0000 0000 0000 0000 000000
2017-05-13 12:02:49,0.03,1.21,0.00,24.14,26.92,30.16,14.32,48.62,1013.48,2031.77,3014.27,2760.73,3170.14,599.82,591.64,11.40,0000 0000 0000 0000 000000
2017-05-13 12:07:50,0.02,1.21,0.00,24.12,26.92,30.14,14.41,48.58,1013.56,2031.63,3013.76,2760.03,3169.93,599.70,591.72,11.45,0000 0000 0000 0000 000000
2017-05-13 12:12:51,0.01,1.21,0.00,24.18,26.92,30.14,14.40,48.51,1013.60,2031.54,3013.04,2759.98,3169.16,600.49,592.43,11.50,0000 0000 0000 0000 000000
2017-05-13 12:17:52,0.05,1.22,0.00,24.17,26.92,30.13,14.29,48.48,1013.44,2031.59,3012.42,2759.40,3168.99,599.76,591.52,11.55,0000 0000 0000 0000 000000
2017-05-13 12:22:54,0.04,1.22,0.00,24.23,26.92,30.13,14.34,48.44,1013.23,2031.75,3011.93,2759.01,3168.31,599.84,591.39,11.61,0000 0000 0000 0000 000000
2017-05-13 12:27:55,0.02,1.22,0.00,24.20,26.92,30.12,14.40,48.55,1013.22,2031.70,3011.11,2758.69,3167.97,600.05,591.72,11.66,0000 0000 0000 0000 000000
2017-05-13 12:32:57,0.04,1.22,0.00,24.13,26.90,30.13,14.38,48.54,1013.44,2031.67,3010.47,2758.03,3167.30,599.91,591.88,11.71,0000 0000 0000 0000 000000
2017-05-13 12:37:58,0.02,1.22,0.00,24.15,26.90,30.12,14.33,48.55,1013.67,2031.72,3009.84,2757.87,3166.89,599.78,591.68,11.76,0000 0000 0000 0000 000000
2017-05-13 12:42:59,0.06,1.23,0.00,24.14,26.90,30.12,14.35,48.57,1013.69,2031.79,3009.07,2757.12,3166.15,600.02,591.97,11.81,0000 0000 0000 0000 000000
2017-05-13 12:48:00,0.02,1.23,0.00,24.14,26.90,30.10,14.25,48.49,1013.68,2031.86,3008.41,2756.99,3165.97,599.55,591.58,11.86,0000 0000 0000 0000 000000
2017-05-13 12:53:02,0.04,1.23,0.00,24.18,26.89,30.10,14.39,48.54,1013.65,2031.92,3007.96,2756.49,3165.22,600.11,592.11,11.91,0000 0000 0000 0000 000000
2017-05-13 12:58:03,0.02,1.23,0.00,24.21,26.88,30.10,14.26,48.45,1013.61,2031.93,3007.14,2756.01,3164.93,599.70,591.65,11.96,0000 0000 0000 0000 000000
2017-05-13 13:03:04,0.04,1.23,0.00,24.15,26.87,30.09,14.39,48.56,1013.68,2031.93,3006.74,2755.78,3164.14,599.84,591.79,12.01,0000 0000 0000 0000 000000